Glasgow, MT

8:17 PM MST on February 25, 2017 (GMT -0700)
Wokal-Glasgow International

Weather History for KGGW - November, 2013

Change the Weather History Date:

Sunday, November 3, 2013

  Actual Average Record
Temperature  
Mean Temperature 39 °F 36 °F  
Max Temperature 47 °F 47 °F 70 °F (1949)
Min Temperature 30 °F 25 °F -11 °F (1991)
Degree Days  
Heating Degree Days 26 29  
Month to date heating degree days 78 85  
Since 1 July heating degree days 883 1009  
Cooling Degree Days 0 0  
Month to date cooling degree days 0 0  
Year to date cooling degree days 563 533  
Moisture  
Dew Point 28 °F    
Average Humidity 73    
Maximum Humidity 92    
Minimum Humidity 53    
Precipitation  
Precipitation 0.02 in 0.01 in 0.47 in (2015)
Month to date precipitation 0.02 0.04  
Year to date precipitation 14.68 10.90  
Snow  
Snow 0.00 in 0.10 in 2.40 in (2005)
Month to date snowfall 0.0 0.3  
Since 1 July snowfall 0.1 1.8  
Since 1 September snowfall 0.1 1.8  
Snow Depth 0.00 in    
Sea Level Pressure  
Sea Level Pressure 29.66 in    
Wind  
Wind Speed 16 mph (West)    
Max Wind Speed 32 mph    
Max Gust Speed 40 mph    
Visibility 10 miles    
Events Rain    
T = Trace of Precipitation, MM = Missing Value Source: NWS Daily Summary

Daily Weather History Graph

Daily Weather History Graph

Search for Another Location

Airport or City:

Trip Planner

Search our weather history database for the weather conditions in past years. The results will help you decide how hot, cold, wet, or windy it might be!

Date:

Astronomy

Nov. 03, 2013 Rise Set
Actual Time 6:55 AM MST 4:43 PM MST
Civil Twilight 6:22 AM MST 5:16 PM MST
Nautical Twilight 5:45 AM MST 5:53 PM MST
Astronomical Twilight 5:09 AM MST 6:29 PM MST
Moon 7:03 AM MST (11/3) 4:58 PM MST (11/3)
Length of Visible Light 10h 54m
Length of Day
9h 48m
New Moon, 0% of the Moon is Illuminated
Nov 3
New Moon
Nov 9
First Quarter
Nov 17
Full
Nov 25
Last Quarter
Dec 2
New

Hourly Weather History & Observations

Time (MST) Temp. Windchill Dew Point Humidity Pressure Visibility Wind Dir Wind Speed Gust Speed Precip Events Conditions
12:53 AM 39.0 °F 32.3 °F 28.9 °F 67% 29.54 in 10.0 mi ESE 10.4 mph - N/A   Overcast
1:53 AM 39.0 °F 35.7 °F 28.9 °F 67% 29.55 in 10.0 mi ESE 4.6 mph - N/A   Overcast
1:53 AM 37.9 °F - 28.9 °F 70% 29.56 in 10.0 mi Calm Calm - N/A   Overcast
2:53 AM 37.0 °F - 33.1 °F 86% 29.58 in 8.0 mi Calm Calm - 0.00 in Rain Light Rain
3:53 AM 37.0 °F - 35.1 °F 93% 29.55 in 10.0 mi Calm Calm - 0.02 in   Overcast
4:53 AM 36.0 °F 30.3 °F 34.0 °F 93% 29.59 in 10.0 mi WSW 6.9 mph - N/A   Mostly Cloudy
5:53 AM 37.0 °F 32.4 °F 36.0 °F 96% 29.57 in 10.0 mi West 5.8 mph - N/A   Partly Cloudy
6:53 AM 37.9 °F 30.9 °F 35.1 °F 89% 29.60 in 10.0 mi WNW 10.4 mph - N/A   Mostly Cloudy
7:53 AM 37.9 °F 30.0 °F 33.1 °F 83% 29.61 in 10.0 mi WNW 12.7 mph - N/A   Mostly Cloudy
8:53 AM 37.9 °F 30.5 °F 33.1 °F 83% 29.62 in 10.0 mi West 11.5 mph - N/A   Overcast
9:53 AM 41.0 °F 34.7 °F 33.1 °F 73% 29.63 in 10.0 mi West 10.4 mph - N/A   Mostly Cloudy
10:53 AM 46.0 °F 38.3 °F 30.0 °F 54% 29.63 in 10.0 mi West 20.7 mph 27.6 mph N/A   Clear
11:53 AM 46.0 °F 39.0 °F 30.0 °F 54% 29.64 in 10.0 mi WNW 17.3 mph 31.1 mph N/A   Clear
12:53 PM 44.1 °F 35.4 °F 30.0 °F 58% 29.62 in 10.0 mi WNW 21.9 mph 25.3 mph N/A   Mostly Cloudy
1:53 PM 43.0 °F 33.8 °F 28.0 °F 56% 29.63 in 10.0 mi WNW 23.0 mph 31.1 mph N/A   Mostly Cloudy
2:53 PM 43.0 °F 34.2 °F 28.9 °F 58% 29.66 in 10.0 mi West 20.7 mph 33.4 mph N/A   Mostly Cloudy
3:53 PM 39.0 °F 27.0 °F 27.0 °F 62% 29.68 in 10.0 mi West 31.1 mph 39.1 mph N/A   Mostly Cloudy
4:53 PM 37.0 °F 26.2 °F 26.1 °F 65% 29.70 in 10.0 mi West 21.9 mph 36.8 mph N/A   Overcast
5:34 PM 35.6 °F 23.4 °F 26.6 °F 70% 29.66 in 10.0 mi West 25.3 mph 32.2 mph N/A   Overcast
5:53 PM 35.1 °F 24.1 °F 26.1 °F 70% 29.73 in 10.0 mi West 19.6 mph 28.8 mph N/A   Overcast
6:01 PM 35.6 °F 24.5 °F 26.6 °F 70% 29.66 in 10.0 mi West 20.7 mph 29.9 mph N/A   Overcast
6:53 PM 35.1 °F 24.1 °F 25.0 °F 67% 29.73 in 10.0 mi West 19.6 mph 33.4 mph N/A   Overcast
7:42 PM 33.8 °F 20.1 °F 23.0 °F 65% 29.68 in 10.0 mi WNW 29.9 mph 35.7 mph N/A   Mostly Cloudy
7:49 PM 33.8 °F 21.3 °F 23.0 °F 65% 29.68 in 10.0 mi WNW 24.2 mph 39.1 mph N/A   Mostly Cloudy
7:53 PM 33.1 °F 19.8 °F 23.0 °F 66% 29.74 in 10.0 mi WNW 26.5 mph 36.8 mph N/A   Mostly Cloudy
8:53 PM 30.9 °F 16.7 °F 21.9 °F 69% 29.78 in 10.0 mi WNW 27.6 mph 36.8 mph N/A   Partly Cloudy
9:26 PM 32.0 °F 19.2 °F 21.2 °F 64% 29.73 in 10.0 mi WNW 23.0 mph 32.2 mph N/A   Overcast
9:36 PM 32.0 °F 18.6 °F 21.2 °F 64% 29.73 in 10.0 mi WNW 25.3 mph 39.1 mph N/A   Overcast
9:53 PM 32.0 °F 17.6 °F 21.0 °F 64% 29.81 in 10.0 mi WNW 29.9 mph 39.1 mph N/A   Overcast
10:30 PM 30.2 °F 16.2 °F 21.2 °F 69% 29.76 in 10.0 mi WNW 25.3 mph 34.5 mph N/A   Overcast
10:53 PM 30.9 °F 19.8 °F 21.0 °F 67% 29.82 in 10.0 mi WNW 16.1 mph 32.2 mph N/A   Overcast